Вернуться в каталог

STARLINK-30931

АктивенСвязьVLEO
NORAD 58413·PAYLOAD·🇺🇸 United States

Запущен Nov 22, 2023 с Cape Canaveral Space Force Station

Loading…

Ближайшие Пролёты (ближайшие 24 часа)

TLE

СвежийSource: CelesTrak SupGP

Эпоха: Sep 15, 2026, 02:44 UTC

1 58413C 23180M   26258.11437500 -.00025237  00000+0 -91414-3 0  2589
2 58413  43.0046  51.5220 0001756 272.0246 219.9893 15.27587900    13

Отслеживайте STARLINK-30931 в реальном времени с AllMySat

Download on the App Store